Location: Barcelona
(41.3830°N, 2.1830°E)
Time: 20:17:37
(UTC+01:00)

ISS - Pass Details

Date: 25 February 2021
Orbit: 417 x 422 km, 51.6° (Epoch: 26 February)

Event Time Altitude Azimuth Distance (km) Brightness Sun altitude
Exits shadow 04:50:14 13° 65° (ENE) 1,327 -0.4 -30.9°
Drops below altitude 10° 04:50:39 10° 63° (ENE) 1,496 -0.1 -30.8°
Sets 04:52:47 0° 58° (ENE) 2,363 1.1 -30.4°
